Regional Weather Roundup
Issued by NWS Little Rock, AR

Home | Current Version | Previous Version | Text Only | Print | Product List | Glossary Off
Versions: 1 2 3 4 5 6 7 8 9 10 11 12 13 14 15 16 17 18 19 20 21 22 23 24 25 26 27 28 29 30 31 32 33 34 35 36 37 38 39 40 41 42 43 44 45 46 47 48 49 50

066
ASUS44 KLZK 130805
RWRLZK

WEATHER ROUNDUP FOR ARKANSAS
NATIONAL WEATHER SERVICE LITTLE ROCK AR
200 AM CST SAT FEB 13 2016

NOTE: "FAIR" INDICATES FEW OR NO CLOUDS BELOW 12,000 FEET WITH NO
SIGNIFICANT WEATHER AND/OR OBSTRUCTIONS TO VISIBILITY.

ARZ001-003-010-029-130900-
NORTHWEST ARKANSAS

CITY           SKY/WX    TMP DP  RH WIND       PRES   REMARKS
FAYETTEVILLE   CLOUDY    31  18  58 NE3       30.47R
FORT SMITH     CLOUDY    43  23  45 NE8       30.45F
HARRISON       CLOUDY    29  11  47 N10       30.48S WCI  20
BENTONVILLE    CLOUDY    30  12  47 NE14      30.49R WCI  20
ROGERS         CLOUDY    30  16  56 NE14      30.49R WCI  19
SILOAM SPGS    CLOUDY    32  12  43 NE9       30.47F WCI  24
$$

ARZ004-005-016-130900-
NORTH CENTRAL ARKANSAS

CITY           SKY/WX    TMP DP  RH WIND       PRES   REMARKS
BATESVILLE     CLOUDY    34  10  37 N6        30.50F WCI  29
FLIPPIN        CLOUDY    30   9  40 N10       30.49R WCI  21
MTN HOME       CLOUDY    29   6  38 N6        30.48F WCI  23
$$

ARZ040-041-130900-
WEST CENTRAL ARKANSAS

CITY           SKY/WX    TMP DP  RH WIND       PRES   REMARKS
MENA           CLOUDY    46  30  53 NE6       30.41R
MOUNT IDA      CLOUDY    46  25  43 CALM      30.41R
$$

ARZ009-017-025-026-028-130900-
NORTHEAST ARKANSAS

CITY           SKY/WX    TMP DP  RH WIND       PRES   REMARKS
CORNING        FAIR      28  14  54 N8        30.53R WCI  20
JONESBORO      CLEAR     30  16  56 N10       30.49S WCI  21
NEWPORT        PTCLDY    31  16  54 N5        30.52R WCI  26
WALNUT RIDGE   CLEAR     28  16  59 NE9       30.52R WCI  20
BLYTHEVILLE    CLEAR     28  15  58 N13       30.51R WCI  17
$$

ARZ022-023-033-042-044-130900-
CENTRAL ARKANSAS

CITY           SKY/WX    TMP DP  RH WIND       PRES   REMARKS
LITTLE ROCK    CLOUDY    42  22  44 N9        30.48R
N LITTLE ROCK    N/A     39  25  55 NE9G17    30.48R
JACKSONVILLE   CLOUDY    38  22  52 NE10      30.47R
SEARCY         CLOUDY    37  14  38 N14       30.49R
HOT SPRINGS    CLOUDY    44  25  47 NE10      30.44R
RUSSELLVILLE   CLOUDY    40  22  48 NE10      30.46F
CLINTON        FAIR      36  19  51 N6        30.48S
$$

ARZ036-130900-
EAST ARKANSAS

CITY           SKY/WX    TMP DP  RH WIND       PRES   REMARKS
WEST MEMPHIS   CLEAR     31  17  56 NE16G26   30.49R HAZE    WCI  20
$$

ARZ050-053-066-070-073-130900-
SOUTHWEST ARKANSAS

CITY           SKY/WX    TMP DP  RH WIND       PRES   REMARKS
ARKADELPHIA    FAIR      47  29  50 NE8       30.44R
CAMDEN         MIX PCPN  45  28  53 NE6       30.43R
TEXARKANA      CLEAR     47  29  49 E6        30.39R
EL DORADO      CLEAR     42  33  70 NE6       30.41R
DE QUEEN       CLOUDY    45  31  58 CALM      30.39R
$$

ARZ056-057-069-130900-
SOUTHEAST ARKANSAS

CITY           SKY/WX    TMP DP  RH WIND       PRES   REMARKS
PINE BLUFF     CLOUDY    41  27  57 NE13      30.47R
STUTTGART      CLEAR     37  21  52 NE15      30.48R
MONTICELLO     CLOUDY    44  27  51 N9G20     30.43R

$$






USA.gov is the U.S. government's official web portal to all federal, state and local government web resources and services.